Year,Month,Day,Hour,Minute,Value (Times are PST for temperature in C)
2013,01,25,00,00,3.80
2013,01,25,00,01,3.80
2013,01,25,00,02,3.80
2013,01,25,00,03,3.80
2013,01,25,00,04,3.80
2013,01,25,00,05,3.80
2013,01,25,00,06,3.80
2013,01,25,00,07,3.80
2013,01,25,00,08,3.80
2013,01,25,00,09,3.80
2013,01,25,00,10,3.80
2013,01,25,00,11,3.80
2013,01,25,00,12,3.80
2013,01,25,00,13,3.80
2013,01,25,00,14,3.80
2013,01,25,00,15,3.80
2013,01,25,00,16,3.80
2013,01,25,00,17,3.80
2013,01,25,00,18,3.80
2013,01,25,00,19,3.80
2013,01,25,00,20,3.80
2013,01,25,00,21,3.80
2013,01,25,00,22,3.80
2013,01,25,00,23,3.80
2013,01,25,00,24,3.80
2013,01,25,00,25,3.80
2013,01,25,00,26,3.80
2013,01,25,00,27,3.80
2013,01,25,00,28,3.80
2013,01,25,00,29,3.80
2013,01,25,00,30,3.80
2013,01,25,00,31,3.80
2013,01,25,00,32,3.80
2013,01,25,00,33,3.80
2013,01,25,00,34,3.80
2013,01,25,00,35,3.80
2013,01,25,00,36,3.80
2013,01,25,00,37,3.80
2013,01,25,00,38,3.80
2013,01,25,00,39,3.80
2013,01,25,00,40,3.80
2013,01,25,00,41,3.80
2013,01,25,00,42,3.80
2013,01,25,00,43,3.80
2013,01,25,00,44,3.80
2013,01,25,00,45,3.80
2013,01,25,00,46,3.80
2013,01,25,00,47,3.80
2013,01,25,00,48,3.80
2013,01,25,00,49,3.80
2013,01,25,00,50,3.80
2013,01,25,00,51,3.80
2013,01,25,00,52,3.80
2013,01,25,00,53,3.80
2013,01,25,00,54,3.80
2013,01,25,00,55,3.70
2013,01,25,00,56,3.70
2013,01,25,00,57,3.70
2013,01,25,00,58,3.70
2013,01,25,00,59,3.70
2013,01,25,01,00,3.70
2013,01,25,01,01,3.70
2013,01,25,01,02,3.70
2013,01,25,01,03,3.70
2013,01,25,01,04,3.70
2013,01,25,01,05,3.70
2013,01,25,01,06,3.70
2013,01,25,01,07,3.70
2013,01,25,01,08,3.80
2013,01,25,01,09,3.80
2013,01,25,01,10,3.80
2013,01,25,01,11,3.80
2013,01,25,01,12,3.80
2013,01,25,01,13,3.80
2013,01,25,01,14,3.80
2013,01,25,01,15,3.80
2013,01,25,01,16,3.80
2013,01,25,01,17,3.80
2013,01,25,01,18,3.80
2013,01,25,01,19,3.80
2013,01,25,01,20,3.80
2013,01,25,01,21,3.80
2013,01,25,01,22,3.80
2013,01,25,01,23,3.80
2013,01,25,01,24,3.80
2013,01,25,01,25,3.80
2013,01,25,01,26,3.80
2013,01,25,01,27,3.80
2013,01,25,01,28,3.80
2013,01,25,01,29,3.80
2013,01,25,01,30,3.80
2013,01,25,01,31,3.80
2013,01,25,01,32,3.80
2013,01,25,01,33,3.70
2013,01,25,01,34,3.70
2013,01,25,01,35,3.70
2013,01,25,01,36,3.70
2013,01,25,01,37,3.60
2013,01,25,01,38,3.60
2013,01,25,01,39,3.60
2013,01,25,01,40,3.60
2013,01,25,01,41,3.50
2013,01,25,01,42,3.50
2013,01,25,01,43,3.50
2013,01,25,01,44,3.50
2013,01,25,01,45,3.50
2013,01,25,01,46,3.40
2013,01,25,01,47,3.40
2013,01,25,01,48,3.40
2013,01,25,01,49,3.40
2013,01,25,01,50,3.40
2013,01,25,01,51,3.40
2013,01,25,01,52,3.40
2013,01,25,01,53,3.30
2013,01,25,01,54,3.30
2013,01,25,01,55,3.30
2013,01,25,01,56,3.30
2013,01,25,01,57,3.20
2013,01,25,01,58,3.20
2013,01,25,01,59,3.20
2013,01,25,02,00,3.20
2013,01,25,02,01,3.10
2013,01,25,02,02,3.10
2013,01,25,02,03,3.10
2013,01,25,02,04,3.00
2013,01,25,02,05,3.00
2013,01,25,02,06,2.90
2013,01,25,02,07,2.90
2013,01,25,02,08,2.90
2013,01,25,02,09,2.80
2013,01,25,02,10,2.80
2013,01,25,02,11,2.80
2013,01,25,02,12,2.80
2013,01,25,02,13,2.70
2013,01,25,02,14,2.70
2013,01,25,02,15,2.70
2013,01,25,02,16,2.70
2013,01,25,02,17,2.60
2013,01,25,02,18,2.60
2013,01,25,02,19,2.60
2013,01,25,02,20,2.60
2013,01,25,02,21,2.50
2013,01,25,02,22,2.50
2013,01,25,02,23,2.50
2013,01,25,02,24,2.40
2013,01,25,02,25,2.40
2013,01,25,02,26,2.40
2013,01,25,02,27,2.40
2013,01,25,02,28,2.30
2013,01,25,02,29,2.30
2013,01,25,02,30,2.30
2013,01,25,02,31,2.30
2013,01,25,02,32,2.30
2013,01,25,02,33,2.20
2013,01,25,02,34,2.20
2013,01,25,02,35,2.20
2013,01,25,02,36,2.20
2013,01,25,02,37,2.10
2013,01,25,02,38,2.10
2013,01,25,02,39,2.10
2013,01,25,02,40,2.10
2013,01,25,02,41,2.10
2013,01,25,02,42,2.10
2013,01,25,02,43,2.00
2013,01,25,02,44,2.00
2013,01,25,02,45,2.00
2013,01,25,02,46,2.00
2013,01,25,02,47,2.00
2013,01,25,02,48,2.00
2013,01,25,02,49,2.00
2013,01,25,02,50,2.00
2013,01,25,02,51,2.00
2013,01,25,02,52,2.10
2013,01,25,02,53,2.10
2013,01,25,02,54,2.10
2013,01,25,02,55,2.10
2013,01,25,02,56,2.10
2013,01,25,02,57,2.10
2013,01,25,02,58,2.10
2013,01,25,02,59,2.10
2013,01,25,03,00,2.10
2013,01,25,03,01,2.10
2013,01,25,03,02,2.10
2013,01,25,03,03,2.10
2013,01,25,03,04,2.10
2013,01,25,03,05,2.10
2013,01,25,03,06,2.10
2013,01,25,03,07,2.10
2013,01,25,03,08,2.10
2013,01,25,03,09,2.20
2013,01,25,03,10,2.20
2013,01,25,03,11,2.20
2013,01,25,03,12,2.20
2013,01,25,03,13,2.20
2013,01,25,03,14,2.20
2013,01,25,03,15,2.20
2013,01,25,03,16,2.20
2013,01,25,03,17,2.20
2013,01,25,03,18,2.20
2013,01,25,03,19,2.20
2013,01,25,03,20,2.20
2013,01,25,03,21,2.20
2013,01,25,03,22,2.20
2013,01,25,03,23,2.20
2013,01,25,03,24,2.20
2013,01,25,03,25,2.20
2013,01,25,03,26,2.30
2013,01,25,03,27,2.30
2013,01,25,03,28,2.30
2013,01,25,03,29,2.30
2013,01,25,03,30,2.30
2013,01,25,03,31,2.30
2013,01,25,03,32,2.30
2013,01,25,03,33,2.30
2013,01,25,03,34,2.30
2013,01,25,03,35,2.30
2013,01,25,03,36,2.30
2013,01,25,03,37,2.30
2013,01,25,03,38,2.30
2013,01,25,03,39,2.30
2013,01,25,03,40,2.30
2013,01,25,03,41,2.30
2013,01,25,03,42,2.30
2013,01,25,03,43,2.30
2013,01,25,03,44,2.30
2013,01,25,03,45,2.30
2013,01,25,03,46,2.30
2013,01,25,03,47,2.30
2013,01,25,03,48,2.40
2013,01,25,03,49,2.40
2013,01,25,03,50,2.40
2013,01,25,03,51,2.40
2013,01,25,03,52,2.30
2013,01,25,03,53,2.30
2013,01,25,03,54,2.30
2013,01,25,03,55,2.40
2013,01,25,03,56,2.40
2013,01,25,03,57,2.40
2013,01,25,03,58,2.40
2013,01,25,03,59,2.40
2013,01,25,04,00,2.40
2013,01,25,04,01,2.40
2013,01,25,04,02,2.40
2013,01,25,04,03,2.40
2013,01,25,04,04,2.40
2013,01,25,04,05,2.40
2013,01,25,04,06,2.40
2013,01,25,04,07,2.40
2013,01,25,04,08,2.40
2013,01,25,04,09,2.40
2013,01,25,04,10,2.40
2013,01,25,04,11,2.40
2013,01,25,04,12,2.40
2013,01,25,04,13,2.40
2013,01,25,04,14,2.50
2013,01,25,04,15,2.50
2013,01,25,04,16,2.40
2013,01,25,04,17,2.40
2013,01,25,04,18,2.40
2013,01,25,04,19,2.40
2013,01,25,04,20,2.40
2013,01,25,04,21,2.40
2013,01,25,04,22,2.40
2013,01,25,04,23,2.40
2013,01,25,04,24,2.40
2013,01,25,04,25,2.40
2013,01,25,04,26,2.40
2013,01,25,04,27,2.30
2013,01,25,04,28,2.30
2013,01,25,04,29,2.30
2013,01,25,04,30,2.30
2013,01,25,04,31,2.30
2013,01,25,04,32,2.40
2013,01,25,04,33,2.30
2013,01,25,04,34,2.30
2013,01,25,04,35,2.30
2013,01,25,04,36,2.30
2013,01,25,04,37,2.30
2013,01,25,04,38,2.30
2013,01,25,04,39,2.30
2013,01,25,04,40,2.30
2013,01,25,04,41,2.30
2013,01,25,04,42,2.30
2013,01,25,04,43,2.30
2013,01,25,04,44,2.30
2013,01,25,04,45,2.30
2013,01,25,04,46,2.30
2013,01,25,04,47,2.30
2013,01,25,04,48,2.30
2013,01,25,04,49,2.30
2013,01,25,04,50,2.30
2013,01,25,04,51,2.30
2013,01,25,04,52,2.30
2013,01,25,04,53,2.30
2013,01,25,04,54,2.30
2013,01,25,04,55,2.30
2013,01,25,04,56,2.30
2013,01,25,04,57,2.30
2013,01,25,04,58,2.30
2013,01,25,04,59,2.30
2013,01,25,05,00,2.30
2013,01,25,05,01,2.30
2013,01,25,05,02,2.30
2013,01,25,05,03,2.30
2013,01,25,05,04,2.30
2013,01,25,05,05,2.30
2013,01,25,05,06,2.40
2013,01,25,05,07,2.40
2013,01,25,05,08,2.40
2013,01,25,05,09,2.40
2013,01,25,05,10,2.40
2013,01,25,05,11,2.40
2013,01,25,05,12,2.40
2013,01,25,05,13,2.40
2013,01,25,05,14,2.40
2013,01,25,05,15,2.40
2013,01,25,05,16,2.40
2013,01,25,05,17,2.40
2013,01,25,05,18,2.40
2013,01,25,05,19,2.40
2013,01,25,05,20,2.40
2013,01,25,05,21,2.40
2013,01,25,05,22,2.40
2013,01,25,05,23,2.50
2013,01,25,05,24,2.50
2013,01,25,05,25,2.50
2013,01,25,05,26,2.50
2013,01,25,05,27,2.50
2013,01,25,05,28,2.50
2013,01,25,05,29,2.60
2013,01,25,05,30,2.60
2013,01,25,05,31,2.60
2013,01,25,05,32,2.60
2013,01,25,05,33,2.60
2013,01,25,05,34,2.60
2013,01,25,05,35,2.60
2013,01,25,05,36,2.60
2013,01,25,05,37,2.60
2013,01,25,05,38,2.60
2013,01,25,05,39,2.60
2013,01,25,05,40,2.60
2013,01,25,05,41,2.60
2013,01,25,05,42,2.60
2013,01,25,05,43,2.60
2013,01,25,05,44,2.60
2013,01,25,05,45,2.60
2013,01,25,05,46,2.60
2013,01,25,05,47,2.60
2013,01,25,05,48,2.60
2013,01,25,05,49,2.70
2013,01,25,05,50,2.70
2013,01,25,05,51,2.70
2013,01,25,05,52,2.70
2013,01,25,05,53,2.70
2013,01,25,05,54,2.70
2013,01,25,05,55,2.70
2013,01,25,05,56,2.70
2013,01,25,05,57,2.70
2013,01,25,05,58,2.70
2013,01,25,05,59,2.70
2013,01,25,06,00,2.70
2013,01,25,06,01,2.70
2013,01,25,06,02,2.70
2013,01,25,06,03,2.70
2013,01,25,06,04,2.70
2013,01,25,06,05,2.70
2013,01,25,06,06,2.70
2013,01,25,06,07,2.70
2013,01,25,06,08,2.70
2013,01,25,06,09,2.80
2013,01,25,06,10,2.80
2013,01,25,06,11,2.80
2013,01,25,06,12,2.80
2013,01,25,06,13,2.80
2013,01,25,06,14,2.80
2013,01,25,06,15,2.80
2013,01,25,06,16,2.80
2013,01,25,06,17,2.80
2013,01,25,06,18,2.80
2013,01,25,06,19,2.80
2013,01,25,06,20,2.80
2013,01,25,06,21,2.80
2013,01,25,06,22,2.80
2013,01,25,06,23,2.80
2013,01,25,06,24,2.80
2013,01,25,06,25,2.80
2013,01,25,06,26,2.80
2013,01,25,06,27,2.80
2013,01,25,06,28,2.80
2013,01,25,06,29,2.80
2013,01,25,06,30,2.80
2013,01,25,06,31,2.80
2013,01,25,06,32,2.90
2013,01,25,06,33,2.90
2013,01,25,06,34,2.90
2013,01,25,06,35,2.90
2013,01,25,06,36,2.90
2013,01,25,06,37,2.90
2013,01,25,06,38,2.90
2013,01,25,06,39,2.90
2013,01,25,06,40,2.90
2013,01,25,06,41,2.90
2013,01,25,06,42,2.90
2013,01,25,06,43,2.90
2013,01,25,06,44,2.90
2013,01,25,06,45,2.90
2013,01,25,06,46,2.90
2013,01,25,06,47,2.90
2013,01,25,06,48,2.90
2013,01,25,06,49,3.00
2013,01,25,06,50,3.00
2013,01,25,06,51,3.00
2013,01,25,06,52,3.00
2013,01,25,06,53,3.00
2013,01,25,06,54,3.00
2013,01,25,06,55,3.00
2013,01,25,06,56,3.00
2013,01,25,06,57,3.00
2013,01,25,06,58,3.00
2013,01,25,06,59,3.10
2013,01,25,07,00,3.10
2013,01,25,07,01,3.10
2013,01,25,07,02,3.10
2013,01,25,07,03,3.10
2013,01,25,07,04,3.20
2013,01,25,07,05,3.20
2013,01,25,07,06,3.20
2013,01,25,07,07,3.20
2013,01,25,07,08,3.20
2013,01,25,07,09,3.20
2013,01,25,07,10,3.20
2013,01,25,07,11,3.20
2013,01,25,07,12,3.20
2013,01,25,07,13,3.20
2013,01,25,07,14,3.20
2013,01,25,07,15,3.10
2013,01,25,07,16,3.20
2013,01,25,07,17,3.20
2013,01,25,07,18,3.20
2013,01,25,07,19,3.10
2013,01,25,07,20,3.10
2013,01,25,07,21,3.10
2013,01,25,07,22,3.20
2013,01,25,07,23,3.20
2013,01,25,07,24,3.20
2013,01,25,07,25,3.20
2013,01,25,07,26,3.20
2013,01,25,07,27,3.20
2013,01,25,07,28,3.20
2013,01,25,07,29,3.20
2013,01,25,07,30,3.20
2013,01,25,07,31,3.20
2013,01,25,07,32,3.20
2013,01,25,07,33,3.20
2013,01,25,07,34,3.20
2013,01,25,07,35,3.20
2013,01,25,07,36,3.20
2013,01,25,07,37,3.20
2013,01,25,07,38,3.20
2013,01,25,07,39,3.20
2013,01,25,07,40,3.20
2013,01,25,07,41,3.20
2013,01,25,07,42,3.20
2013,01,25,07,43,3.30
2013,01,25,07,44,3.30
2013,01,25,07,45,3.30
2013,01,25,07,46,3.30
2013,01,25,07,47,3.30
2013,01,25,07,48,3.30
2013,01,25,07,49,3.30
2013,01,25,07,50,3.30
2013,01,25,07,51,3.30
2013,01,25,07,52,3.30
2013,01,25,07,53,3.30
2013,01,25,07,54,3.30
2013,01,25,07,55,3.30
2013,01,25,07,56,3.20
2013,01,25,07,57,3.30
2013,01,25,07,58,3.20
2013,01,25,07,59,3.20
2013,01,25,08,00,3.20
2013,01,25,08,01,3.20
2013,01,25,08,02,3.20
2013,01,25,08,03,3.20
2013,01,25,08,04,3.30
2013,01,25,08,05,3.20
2013,01,25,08,06,3.20
2013,01,25,08,07,3.20
2013,01,25,08,08,3.20
2013,01,25,08,09,3.20
2013,01,25,08,10,3.20
2013,01,25,08,11,3.20
2013,01,25,08,12,3.20
2013,01,25,08,13,3.20
2013,01,25,08,14,3.20
2013,01,25,08,15,3.20
2013,01,25,08,16,3.20
2013,01,25,08,17,3.20
2013,01,25,08,18,3.20
2013,01,25,08,19,3.20
2013,01,25,08,20,3.20
2013,01,25,08,21,3.20
2013,01,25,08,22,3.30
2013,01,25,08,23,3.30
2013,01,25,08,24,3.30
2013,01,25,08,25,3.30
2013,01,25,08,26,3.30
2013,01,25,08,27,3.40
2013,01,25,08,28,3.40
2013,01,25,08,29,3.40
2013,01,25,08,30,3.40
2013,01,25,08,31,3.50
2013,01,25,08,32,3.50
2013,01,25,08,33,3.50
2013,01,25,08,34,3.60
2013,01,25,08,35,3.60
2013,01,25,08,36,3.60
2013,01,25,08,37,3.60
2013,01,25,08,38,3.70
2013,01,25,08,39,3.70
2013,01,25,08,40,3.70
2013,01,25,08,41,3.70
2013,01,25,08,42,3.80
2013,01,25,08,43,3.80
2013,01,25,08,44,3.80
2013,01,25,08,45,3.80
2013,01,25,08,46,3.90
2013,01,25,08,47,3.90
2013,01,25,08,48,3.90
2013,01,25,08,49,3.90
2013,01,25,08,50,4.00
2013,01,25,08,51,4.00
2013,01,25,08,52,4.10
2013,01,25,08,53,4.10
2013,01,25,08,54,4.10
2013,01,25,08,55,4.10
2013,01,25,08,56,4.20
2013,01,25,08,57,4.20
2013,01,25,08,58,4.20
2013,01,25,08,59,4.30
2013,01,25,09,00,4.30
2013,01,25,09,01,4.30
2013,01,25,09,02,4.40
2013,01,25,09,03,4.40
2013,01,25,09,04,4.50
2013,01,25,09,05,4.50
2013,01,25,09,06,4.60
2013,01,25,09,07,4.70
2013,01,25,09,08,4.80
2013,01,25,09,09,4.80
2013,01,25,09,10,4.90
2013,01,25,09,11,4.90
2013,01,25,09,12,5.00
2013,01,25,09,13,5.00
2013,01,25,09,14,5.10
2013,01,25,09,15,5.10
2013,01,25,09,16,5.10
2013,01,25,09,17,5.10
2013,01,25,09,18,5.10
2013,01,25,09,19,5.00
2013,01,25,09,20,5.10
2013,01,25,09,21,5.10
2013,01,25,09,22,5.10
2013,01,25,09,23,5.10
2013,01,25,09,24,5.10
2013,01,25,09,25,5.20
2013,01,25,09,26,5.20
2013,01,25,09,27,5.20
2013,01,25,09,28,5.20
2013,01,25,09,29,5.20
2013,01,25,09,30,5.20
2013,01,25,09,31,5.20
2013,01,25,09,32,5.20
2013,01,25,09,33,5.20
2013,01,25,09,34,5.20
2013,01,25,09,35,5.10
2013,01,25,09,36,5.10
2013,01,25,09,37,5.00
2013,01,25,09,38,5.00
2013,01,25,09,39,5.00
2013,01,25,09,40,5.10
2013,01,25,09,41,5.10
2013,01,25,09,42,5.10
2013,01,25,09,43,5.10
2013,01,25,09,44,5.10
2013,01,25,09,45,5.00
2013,01,25,09,46,5.00
2013,01,25,09,47,5.00
2013,01,25,09,48,4.90
2013,01,25,09,49,4.90
2013,01,25,09,50,4.90
2013,01,25,09,51,4.90
2013,01,25,09,52,4.90
2013,01,25,09,53,4.80
2013,01,25,09,54,4.90
2013,01,25,09,55,4.90
2013,01,25,09,56,4.90
2013,01,25,09,57,4.90
2013,01,25,09,58,4.90
2013,01,25,09,59,5.00
2013,01,25,10,00,5.00
2013,01,25,10,01,5.00
2013,01,25,10,02,5.10
2013,01,25,10,03,5.10
2013,01,25,10,04,5.10
2013,01,25,10,05,5.20
2013,01,25,10,06,5.20
2013,01,25,10,07,5.20
2013,01,25,10,08,5.20
2013,01,25,10,09,5.30
2013,01,25,10,10,5.30
2013,01,25,10,11,5.30
2013,01,25,10,12,5.30
2013,01,25,10,13,5.30
2013,01,25,10,14,5.30
2013,01,25,10,15,5.30
2013,01,25,10,16,5.40
2013,01,25,10,17,5.40
2013,01,25,10,18,5.40
2013,01,25,10,19,5.40
2013,01,25,10,20,5.40
2013,01,25,10,21,5.50
2013,01,25,10,22,5.50
2013,01,25,10,23,5.50
2013,01,25,10,24,5.60
2013,01,25,10,25,5.60
2013,01,25,10,26,5.60
2013,01,25,10,27,5.60
2013,01,25,10,28,5.60
2013,01,25,10,29,5.60
2013,01,25,10,30,5.60
2013,01,25,10,31,5.70
2013,01,25,10,32,5.70
2013,01,25,10,33,5.80
2013,01,25,10,34,5.80
2013,01,25,10,35,5.80
2013,01,25,10,36,5.90
2013,01,25,10,37,6.00
2013,01,25,10,38,6.00
2013,01,25,10,39,6.10
2013,01,25,10,40,6.10
2013,01,25,10,41,6.20
2013,01,25,10,42,6.20
2013,01,25,10,43,6.20
2013,01,25,10,44,6.20
2013,01,25,10,45,6.20
2013,01,25,10,46,6.20
2013,01,25,10,47,6.20
2013,01,25,10,48,6.20
2013,01,25,10,49,6.20
2013,01,25,10,50,6.20
2013,01,25,10,51,6.20
2013,01,25,10,52,6.30
2013,01,25,10,53,6.30
2013,01,25,10,54,6.40
2013,01,25,10,55,6.40
2013,01,25,10,56,6.50
2013,01,25,10,57,6.50
2013,01,25,10,58,6.60
2013,01,25,10,59,6.50
2013,01,25,11,00,6.60
2013,01,25,11,01,6.50
2013,01,25,11,02,6.50
2013,01,25,11,03,6.50
2013,01,25,11,04,6.40
2013,01,25,11,05,6.40
2013,01,25,11,06,6.50
2013,01,25,11,07,6.50
2013,01,25,11,08,6.50
2013,01,25,11,09,6.50
2013,01,25,11,10,6.60
2013,01,25,11,11,6.60
2013,01,25,11,12,6.60
2013,01,25,11,13,6.70
2013,01,25,11,14,6.70
2013,01,25,11,15,6.80
2013,01,25,11,16,6.80
2013,01,25,11,17,6.90
2013,01,25,11,18,6.90
2013,01,25,11,19,7.00
2013,01,25,11,20,7.00
2013,01,25,11,21,7.00
2013,01,25,11,22,7.10
2013,01,25,11,23,7.10
2013,01,25,11,24,7.10
2013,01,25,11,25,7.10
2013,01,25,11,26,7.10
2013,01,25,11,27,7.10
2013,01,25,11,28,7.10
2013,01,25,11,29,7.10
2013,01,25,11,30,7.10
2013,01,25,11,31,7.10
2013,01,25,11,32,7.10
2013,01,25,11,33,7.20
2013,01,25,11,34,7.20
2013,01,25,11,35,7.20
2013,01,25,11,36,7.20
2013,01,25,11,37,7.20
2013,01,25,11,38,7.20
2013,01,25,11,39,7.20
2013,01,25,11,40,7.20
2013,01,25,11,41,7.30
2013,01,25,11,42,7.30
2013,01,25,11,43,7.30
2013,01,25,11,44,7.30
2013,01,25,11,45,7.30
2013,01,25,11,46,7.30
2013,01,25,11,47,7.40
2013,01,25,11,48,7.40
2013,01,25,11,49,7.40
2013,01,25,11,50,7.50
2013,01,25,11,51,7.50
2013,01,25,11,52,7.50
2013,01,25,11,53,7.50
2013,01,25,11,54,7.50
2013,01,25,11,55,7.50
2013,01,25,11,56,7.50
2013,01,25,11,57,7.50
2013,01,25,11,58,7.50
2013,01,25,11,59,7.50
2013,01,25,12,00,7.50
2013,01,25,12,01,7.50
2013,01,25,12,02,7.50
2013,01,25,12,03,7.50
2013,01,25,12,04,7.50
2013,01,25,12,05,7.50
2013,01,25,12,06,7.40
2013,01,25,12,07,7.40
2013,01,25,12,08,7.40
2013,01,25,12,09,7.50
2013,01,25,12,10,7.40
2013,01,25,12,11,7.50
2013,01,25,12,12,7.50
2013,01,25,12,13,7.60
2013,01,25,12,14,7.60
2013,01,25,12,15,7.60
2013,01,25,12,16,7.70
2013,01,25,12,17,7.70
2013,01,25,12,18,7.70
2013,01,25,12,19,7.60
2013,01,25,12,20,7.60
2013,01,25,12,21,7.60
2013,01,25,12,22,7.70
2013,01,25,12,23,7.70
2013,01,25,12,24,7.70
2013,01,25,12,25,7.80
2013,01,25,12,26,7.80
2013,01,25,12,27,7.80
2013,01,25,12,28,7.90
2013,01,25,12,29,7.90
2013,01,25,12,30,7.90
2013,01,25,12,31,7.90
2013,01,25,12,32,7.90
2013,01,25,12,33,7.90
2013,01,25,12,34,7.90
2013,01,25,12,35,7.80
2013,01,25,12,36,7.80
2013,01,25,12,37,7.80
2013,01,25,12,38,7.80
2013,01,25,12,39,7.80
2013,01,25,12,40,7.80
2013,01,25,12,41,7.80
2013,01,25,12,42,7.80
2013,01,25,12,43,7.80
2013,01,25,12,44,7.80
2013,01,25,12,45,7.80
2013,01,25,12,46,7.90
2013,01,25,12,47,7.90
2013,01,25,12,48,7.90
2013,01,25,12,49,7.90
2013,01,25,12,50,7.90
2013,01,25,12,51,8.00
2013,01,25,12,52,8.00
2013,01,25,12,53,8.00
2013,01,25,12,54,8.00
2013,01,25,12,55,8.00
2013,01,25,12,56,8.00
2013,01,25,12,57,8.10
2013,01,25,12,58,8.10
2013,01,25,12,59,8.10
2013,01,25,13,00,8.10
2013,01,25,13,01,8.10
2013,01,25,13,02,8.20
2013,01,25,13,03,8.20
2013,01,25,13,04,8.20
2013,01,25,13,05,8.20
2013,01,25,13,06,8.30
2013,01,25,13,07,8.30
2013,01,25,13,08,8.40
2013,01,25,13,09,8.40
2013,01,25,13,10,8.50
2013,01,25,13,11,8.50
2013,01,25,13,12,8.60
2013,01,25,13,13,8.60
2013,01,25,13,14,8.70
2013,01,25,13,15,8.70
2013,01,25,13,16,8.80
2013,01,25,13,17,8.80
2013,01,25,13,18,8.90
2013,01,25,13,19,9.00
2013,01,25,13,20,9.00
2013,01,25,13,21,9.10
2013,01,25,13,22,9.20
2013,01,25,13,23,9.30
2013,01,25,13,24,9.30
2013,01,25,13,25,9.40
2013,01,25,13,26,9.50
2013,01,25,13,27,9.50
2013,01,25,13,28,9.60
2013,01,25,13,29,9.60
2013,01,25,13,30,9.60
2013,01,25,13,31,9.70
2013,01,25,13,32,9.70
2013,01,25,13,33,9.70
2013,01,25,13,34,9.70
2013,01,25,13,35,9.60
2013,01,25,13,36,9.60
2013,01,25,13,37,9.60
2013,01,25,13,38,9.60
2013,01,25,13,39,9.60
2013,01,25,13,40,9.50
2013,01,25,13,41,9.40
2013,01,25,13,42,9.40
2013,01,25,13,43,9.30
2013,01,25,13,44,9.30
2013,01,25,13,45,9.30
2013,01,25,13,46,9.30
2013,01,25,13,47,9.30
2013,01,25,13,48,9.30
2013,01,25,13,49,9.30
2013,01,25,13,50,9.30
2013,01,25,13,51,9.30
2013,01,25,13,52,9.40
2013,01,25,13,53,9.40
2013,01,25,13,54,9.40
2013,01,25,13,55,9.40
2013,01,25,13,56,9.40
2013,01,25,13,57,9.40
2013,01,25,13,58,9.40
2013,01,25,13,59,9.50
2013,01,25,14,00,9.60
2013,01,25,14,01,9.70
2013,01,25,14,02,9.80
2013,01,25,14,03,9.90
2013,01,25,14,04,10.00
2013,01,25,14,05,10.00
2013,01,25,14,06,10.00
2013,01,25,14,07,10.00
2013,01,25,14,08,9.90
2013,01,25,14,09,9.90
2013,01,25,14,10,9.80
2013,01,25,14,11,9.70
2013,01,25,14,12,9.60
2013,01,25,14,13,9.60
2013,01,25,14,14,9.50
2013,01,25,14,15,9.40
2013,01,25,14,16,9.30
2013,01,25,14,17,9.30
2013,01,25,14,18,9.20
2013,01,25,14,19,9.10
2013,01,25,14,20,9.00
2013,01,25,14,21,8.90
2013,01,25,14,22,8.90
2013,01,25,14,23,8.90
2013,01,25,14,24,8.90
2013,01,25,14,25,8.90
2013,01,25,14,26,8.80
2013,01,25,14,27,8.80
2013,01,25,14,28,8.80
2013,01,25,14,29,8.80
2013,01,25,14,30,8.80
2013,01,25,14,31,8.80
2013,01,25,14,32,8.70
2013,01,25,14,33,8.70
2013,01,25,14,34,8.70
2013,01,25,14,35,8.70
2013,01,25,14,36,8.70
2013,01,25,14,37,8.70
2013,01,25,14,38,8.80
2013,01,25,14,39,8.80
2013,01,25,14,40,8.80
2013,01,25,14,41,8.80
2013,01,25,14,42,8.80
2013,01,25,14,43,8.70
2013,01,25,14,44,8.70
2013,01,25,14,45,8.60
2013,01,25,14,46,8.60
2013,01,25,14,47,8.50
2013,01,25,14,48,8.50
2013,01,25,14,49,8.40
2013,01,25,14,50,8.30
2013,01,25,14,51,8.20
2013,01,25,14,52,8.20
2013,01,25,14,53,8.20
2013,01,25,14,54,8.10
2013,01,25,14,55,8.10
2013,01,25,14,56,8.00
2013,01,25,14,57,8.00
2013,01,25,14,58,7.90
2013,01,25,14,59,7.90
2013,01,25,15,00,7.90
2013,01,25,15,01,7.90
2013,01,25,15,02,7.90
2013,01,25,15,03,7.90
2013,01,25,15,04,7.90
2013,01,25,15,05,7.90
2013,01,25,15,06,7.90
2013,01,25,15,07,7.90
2013,01,25,15,08,7.90
2013,01,25,15,09,7.90
2013,01,25,15,10,8.00
2013,01,25,15,11,7.90
2013,01,25,15,12,7.90
2013,01,25,15,13,7.90
2013,01,25,15,14,7.90
2013,01,25,15,15,7.80
2013,01,25,15,16,7.80
2013,01,25,15,17,7.80
2013,01,25,15,18,7.70
2013,01,25,15,19,7.70
2013,01,25,15,20,7.70
2013,01,25,15,21,7.60
2013,01,25,15,22,7.60
2013,01,25,15,23,7.60
2013,01,25,15,24,7.60
2013,01,25,15,25,7.60
2013,01,25,15,26,7.60
2013,01,25,15,27,7.60
2013,01,25,15,28,7.60
2013,01,25,15,29,7.60
2013,01,25,15,30,7.50
2013,01,25,15,31,7.50
2013,01,25,15,32,7.50
2013,01,25,15,33,7.50
2013,01,25,15,34,7.50
2013,01,25,15,35,7.50
2013,01,25,15,36,7.40
2013,01,25,15,37,7.40
2013,01,25,15,38,7.40
2013,01,25,15,39,7.40
2013,01,25,15,40,7.40
2013,01,25,15,41,7.40
2013,01,25,15,42,7.40
2013,01,25,15,43,7.40
2013,01,25,15,44,7.40
2013,01,25,15,45,7.30
2013,01,25,15,46,7.30
2013,01,25,15,47,7.30
2013,01,25,15,48,7.30
2013,01,25,15,49,7.30
2013,01,25,15,50,7.30
2013,01,25,15,51,7.30
2013,01,25,15,52,7.30
2013,01,25,15,53,7.30
2013,01,25,15,54,7.30
2013,01,25,15,55,7.30
2013,01,25,15,56,7.20
2013,01,25,15,57,7.20
2013,01,25,15,58,7.20
2013,01,25,15,59,7.20
2013,01,25,16,00,7.20
2013,01,25,16,01,7.10
2013,01,25,16,02,7.10
2013,01,25,16,03,7.00
2013,01,25,16,04,6.90
2013,01,25,16,05,6.90
2013,01,25,16,06,6.90
2013,01,25,16,07,6.80
2013,01,25,16,08,6.80
2013,01,25,16,09,6.80
2013,01,25,16,10,6.70
2013,01,25,16,11,6.70
2013,01,25,16,12,6.60
2013,01,25,16,13,6.50
2013,01,25,16,14,6.50
2013,01,25,16,15,6.40
2013,01,25,16,16,6.30
2013,01,25,16,17,6.30
2013,01,25,16,18,6.20
2013,01,25,16,19,6.20
2013,01,25,16,20,6.20
2013,01,25,16,21,6.20
2013,01,25,16,22,6.10
2013,01,25,16,23,6.10
2013,01,25,16,24,6.10
2013,01,25,16,25,6.00
2013,01,25,16,26,6.00
2013,01,25,16,27,6.00
2013,01,25,16,28,5.90
2013,01,25,16,29,5.90
2013,01,25,16,30,5.90
2013,01,25,16,31,5.90
2013,01,25,16,32,5.90
2013,01,25,16,33,5.80
2013,01,25,16,34,5.80
2013,01,25,16,35,5.80
2013,01,25,16,36,5.80
2013,01,25,16,37,5.70
2013,01,25,16,38,5.70
2013,01,25,16,39,5.70
2013,01,25,16,40,5.60
2013,01,25,16,41,5.60
2013,01,25,16,42,5.50
2013,01,25,16,43,5.50
2013,01,25,16,44,5.40
2013,01,25,16,45,5.40
2013,01,25,16,46,5.40
2013,01,25,16,47,5.40
2013,01,25,16,48,5.30
2013,01,25,16,49,5.30
2013,01,25,16,50,5.30
2013,01,25,16,51,5.20
2013,01,25,16,52,5.20
2013,01,25,16,53,5.20
2013,01,25,16,54,5.20
2013,01,25,16,55,5.20
2013,01,25,16,56,5.10
2013,01,25,16,57,5.10
2013,01,25,16,58,5.10
2013,01,25,16,59,5.10
2013,01,25,17,00,5.10
2013,01,25,17,01,5.00
2013,01,25,17,02,5.00
2013,01,25,17,03,4.90
2013,01,25,17,04,4.90
2013,01,25,17,05,4.90
2013,01,25,17,06,4.90
2013,01,25,17,07,4.80
2013,01,25,17,08,4.80
2013,01,25,17,09,4.70
2013,01,25,17,10,4.70
2013,01,25,17,11,4.70
2013,01,25,17,12,4.60
2013,01,25,17,13,4.60
2013,01,25,17,14,4.60
2013,01,25,17,15,4.50
2013,01,25,17,16,4.50
2013,01,25,17,17,4.40
2013,01,25,17,18,4.40
2013,01,25,17,19,4.40
2013,01,25,17,20,4.30
2013,01,25,17,21,4.30
2013,01,25,17,22,4.30
2013,01,25,17,23,4.30
2013,01,25,17,24,4.20
2013,01,25,17,25,4.20
2013,01,25,17,26,4.20
2013,01,25,17,27,4.20
2013,01,25,17,28,4.20
2013,01,25,17,29,4.20
2013,01,25,17,30,4.10
2013,01,25,17,31,4.10
2013,01,25,17,32,4.00
2013,01,25,17,33,4.00
2013,01,25,17,34,3.90
2013,01,25,17,35,3.90
2013,01,25,17,36,3.90
2013,01,25,17,37,3.80
2013,01,25,17,38,3.80
2013,01,25,17,39,3.80
2013,01,25,17,40,3.80
2013,01,25,17,41,3.70
2013,01,25,17,42,3.70
2013,01,25,17,43,3.70
2013,01,25,17,44,3.60
2013,01,25,17,45,3.60
2013,01,25,17,46,3.60
2013,01,25,17,47,3.60
2013,01,25,17,48,3.50
2013,01,25,17,49,3.50
2013,01,25,17,50,3.50
2013,01,25,17,51,3.40
2013,01,25,17,52,3.40
2013,01,25,17,53,3.40
2013,01,25,17,54,3.30
2013,01,25,17,55,3.30
2013,01,25,17,56,3.30
2013,01,25,17,57,3.20
2013,01,25,17,58,3.20
2013,01,25,17,59,3.20
2013,01,25,18,00,3.20
2013,01,25,18,01,3.20
2013,01,25,18,02,3.20
2013,01,25,18,03,3.10
2013,01,25,18,04,3.10
2013,01,25,18,05,3.10
2013,01,25,18,06,3.00